Regional Weather Roundup
Issued by NWS

Home | Current Version | Previous Version | Text Only | Print | Product List | Glossary Off
Versions: 1 2 3 4 5 6 7 8 9 10 11 12 13 14 15 16 17 18 19 20 21 22 23 24 25 26 27 28 29 30 31 32 33 34 35 36 37 38 39 40 41 42 43 44 45 46 47 48 49 50

244
ASUS43 KDTX 080510
RWRMI
MICHIGAN HOURLY REGIONAL WEATHER ROUNDUP
NATIONAL WEATHER SERVICE DETROIT/PONTIAC MI
1200 AM EST MON FEB 08 2016

NOTE: "FAIR" INDICATES FEW OR NO CLOUDS BELOW 12,000 FEET WITH NO
SIGNIFICANT WEATHER AND/OR OBSTRUCTION TO VISIBILITY.

MIZ047>049-052>055-059>063-066>070-074>076-081>083-080600-
SOUTHEAST LOWER MICHIGAN

CITY           SKY/WX    TMP DP  RH WIND       PRES   REMARKS
ADRIAN         CLOUDY    36  30  79 SW7       29.71F WCI  30
ALMA           CLOUDY    36  33  89 S7        29.66S WCI  30
ANN ARBOR      CLOUDY    40  32  73 SW8       29.69F WCI  34
BAD AXE        CLOUDY    39  32  76 SW5       29.67F
CARO           CLOUDY    37  30  75 CALM      29.67S
DETROIT CITY   MOCLDY    44  31  60 SW9       29.70F
DETROIT        CLOUDY    43  31  62 SW8       29.71F
FLINT          CLOUDY    43  31  62 SW7       29.68F
GROSSE ILE     CLOUDY    45  34  65 SW6       29.69F
HILLSDALE      PTCLDY    36  31  83 SW6       29.68F WCI  31
HOWELL         CLOUDY    40  32  72 SW5       29.67F

CITY           SKY/WX    TMP DP  RH WIND       PRES   REMARKS
JACKSON        CLOUDY    37  30  75 SW5       29.68F WCI  33
LAMBERTVILLE   CLOUDY    43  33  67 W6        29.71F
LANSING        CLOUDY    39  31  72 SW9       29.67F WCI  33
LAPEER         CLOUDY    40  32  72 SW7       29.68S
MASON          MOCLDY    35  31  85 CALM      29.67F
MONROE         CLOUDY    42  33  69 SW7       29.70F
MT. CLEMENS    CLOUDY    39  33  78 S6        29.67F
PONTIAC        CLOUDY    41  31  67 S5        29.67F
PORT HOPE        N/A     37  33  85 CALM      29.66F
PORT HURON     DRIZZLE   39  32  75 S6        29.70F WCI  35
TRI CITIES     CLOUDY    39  31  72 SW7       29.66F WCI  34
MIDLAND        CLOUDY    38  30  74 S3        29.65F
TROY           CLOUDY    44  31  61 SW8       29.70F
SAGINAW HB     CLOUDY    37  32  81 S6        29.66F WCI  33
$$
MIZ043>046-050>051-056>058-064>065-071>073-077>080-080600-
SOUTHWEST LOWER MICHIGAN

CITY           SKY/WX    TMP DP  RH WIND       PRES   REMARKS
BATTLE CREEK   CLEAR     35  29  78 W7        29.68F WCI  29
BENTON HARBOR  PTCLDY    35  29  78 W9        29.70F WCI  28
BIG RAPIDS     CLOUDY    37  33  87 SW6       29.63S WCI  32
COLDWATER      CLEAR     34  31  89 SW6       29.69F WCI  29
FREMONT        CLOUDY    36  31  82 SW6       29.64F WCI  31
HOLLAND        CLEAR     36  30  79 W9        29.68F WCI  29
GRAND RAPIDS   PTCLDY    36  31  82 SW9       29.67F WCI  29
IONIA          FAIR      35  31  84 W10       29.65F WCI  27
KALAMAZOO      CLEAR     36  28  73 W7        29.69F WCI  30
LUDINGTON      CLOUDY    36  32  84 SW6       29.62F WCI  32
MARSHALL       PTCLDY    34  30  85 SW5       29.68F WCI  30
MOUNT PLEASANT CLOUDY    38  32  76 SW3       29.64F
MUSKEGON       CLEAR     36  28  73 W9        29.66F WCI  29
SOUTH HAVEN    CLEAR     36  31  81 W8        29.69F WCI  30
$$
MIZ016>042-080600-
NORTHERN LOWER MICHIGAN

CITY           SKY/WX    TMP DP  RH WIND       PRES   REMARKS
ALPENA         CLOUDY    36  30  79 S3        29.64F
BEAVER ISLAND  CLOUDY    37  33  84 S5        29.58F WCI  34
BELLAIRE       CLOUDY    37  32  82 CALM      29.62S
CADILLAC       CLOUDY    34  32  93 SW5       29.60F WCI  29
CHARLEVOIX     CLOUDY    37  32  82 S7        29.63F WCI  31
FRANKFORT      CLOUDY    38  33  82 S7        29.60F WCI  33
GAYLORD        CLOUDY    35  30  82 SW6       29.59F WCI  30
GRAYLING       PTCLDY    34  31  87 CALM      29.61F
HARBOR SPRINGS CLOUDY    36  32  84 CALM      29.60F
HOUGHTON LAKE  PTCLDY    34  30  85 SW3       29.62F
MANISTEE       CLOUDY    36  30  80 CALM      29.62F
OSCODA         CLOUDY    35  30  82 CALM      29.64F
PELLSTON       CLOUDY    37  31  78 S7        29.61S WCI  32
ROGERS CITY    CLOUDY    37  30  75 S5        29.64S WCI  33
TRAVERSE CITY  CLOUDY    38  31  76 VRB3      29.60F
$$
MIZ007>008-015-080600-
EASTERN UPPER MICHIGAN

CITY           SKY/WX    TMP DP  RH WIND       PRES   REMARKS
KINROSS        CLOUDY    34  34 100 SE5       29.60S WCI  30
MACKINAC ISLAN CLOUDY    35  31  86 S5        29.60S WCI  31
NEWBERRY       CLOUDY    33  32  96 SE5       29.56F FOG     WCI  29
S. S. MARIE    CLOUDY    34  32  92 E5        29.60S FOG     WCI  30
MUNISING         N/A     35  32  88 S6        29.54S WCI  30
$$
MIZ004>006-011>014-085-080600-
CENTRAL UPPER MICHIGAN

CITY           SKY/WX    TMP DP  RH WIND       PRES   REMARKS
MANISTIQUE     CLOUDY    34  32  92 CALM      29.56S
ESCANABA       CLOUDY    34  30  86 S5        29.56S WCI  30
MENOMINEE      CLOUDY    36  28  75 SW5       29.56F WCI  32
SAWYER-GWINN   LGT SNOW  31  31 100 SW5       29.52S WCI  26
$$
MIZ001>003-009>011-084-080600-
WESTERN UPPER MICHIGAN

CITY           SKY/WX    TMP DP  RH WIND       PRES   REMARKS
IRON MOUNTAIN  CLOUDY    33  30  88 S6        29.52S WCI  28
HOUGHTON       CLOUDY    32  30  92 N8        29.51R WCI  25
COPPER HARBOR    N/A     32  31  96 E17       29.53S WCI  21
IRONWOOD       CLOUDY    28  27  93 SW10      29.49S WCI  19
$$

ABBREVIATIONS USED IN REMARKS
   TC - TEMPERATURE IN CELSIUS
  WCI - WIND CHILL INDEX
   HX - HEAT INDEX
  VSB - VISIBILITY





USA.gov is the U.S. government's official web portal to all federal, state and local government web resources and services.